Location: Maddington
(51.2000°N, 1.9167°W)
Time: 11:01:23
(UTC+00:00)

NOSS 2-2 (E) - Pass Details

Date: 24 January 2021
Orbit: 465 x 1741 km, 63.3° (Epoch: 16 January)

Event Time Altitude Azimuth Distance (km) Brightness Sun altitude
Rises 20:45:42 0° 313° (NW) 3,133 7.9 -37.3°
Reaches altitude 10° 20:47:46 10° 311° (NW) 2,352 7.1 -37.6°
Enters shadow 20:50:27 32° 300° (WNW) 1,464 5.8 -38.0°
